Year,Month,Day,Hour,Minute,Value (Times are PST for temperature in C)
2013,05,06,00,00,19.50
2013,05,06,00,01,19.50
2013,05,06,00,02,19.40
2013,05,06,00,03,19.40
2013,05,06,00,04,19.40
2013,05,06,00,05,19.30
2013,05,06,00,06,19.30
2013,05,06,00,07,19.30
2013,05,06,00,08,19.30
2013,05,06,00,09,19.30
2013,05,06,00,10,19.30
2013,05,06,00,11,19.20
2013,05,06,00,12,19.20
2013,05,06,00,13,19.20
2013,05,06,00,14,19.10
2013,05,06,00,15,19.10
2013,05,06,00,16,19.10
2013,05,06,00,17,19.10
2013,05,06,00,18,19.10
2013,05,06,00,19,18.90
2013,05,06,00,20,18.90
2013,05,06,00,21,18.90
2013,05,06,00,22,18.90
2013,05,06,00,23,18.90
2013,05,06,00,24,18.80
2013,05,06,00,25,18.80
2013,05,06,00,26,18.80
2013,05,06,00,27,18.70
2013,05,06,00,28,18.70
2013,05,06,00,29,18.70
2013,05,06,00,30,18.70
2013,05,06,00,31,18.60
2013,05,06,00,32,18.60
2013,05,06,00,33,18.60
2013,05,06,00,34,18.50
2013,05,06,00,35,18.50
2013,05,06,00,36,18.50
2013,05,06,00,37,18.50
2013,05,06,00,38,18.40
2013,05,06,00,39,18.40
2013,05,06,00,40,18.40
2013,05,06,00,41,18.30
2013,05,06,00,42,18.30
2013,05,06,00,43,18.20
2013,05,06,00,44,18.20
2013,05,06,00,45,18.20
2013,05,06,00,46,18.20
2013,05,06,00,47,18.10
2013,05,06,00,48,18.10
2013,05,06,00,49,18.00
2013,05,06,00,50,17.90
2013,05,06,00,51,17.90
2013,05,06,00,52,17.90
2013,05,06,00,53,17.90
2013,05,06,00,54,17.90
2013,05,06,00,55,17.90
2013,05,06,00,56,17.80
2013,05,06,00,57,17.80
2013,05,06,00,58,17.80
2013,05,06,00,59,17.80
2013,05,06,01,00,17.80
2013,05,06,01,01,17.80
2013,05,06,01,02,17.80
2013,05,06,01,03,17.70
2013,05,06,01,04,17.70
2013,05,06,01,05,17.70
2013,05,06,01,06,17.60
2013,05,06,01,07,17.60
2013,05,06,01,08,17.50
2013,05,06,01,09,17.50
2013,05,06,01,10,17.50
2013,05,06,01,11,17.50
2013,05,06,01,12,17.50
2013,05,06,01,13,17.50
2013,05,06,01,14,17.50
2013,05,06,01,15,17.50
2013,05,06,01,16,17.40
2013,05,06,01,17,17.40
2013,05,06,01,18,17.40
2013,05,06,01,19,17.40
2013,05,06,01,20,17.30
2013,05,06,01,21,17.30
2013,05,06,01,22,17.30
2013,05,06,01,23,17.40
2013,05,06,01,24,17.40
2013,05,06,01,25,17.40
2013,05,06,01,26,17.40
2013,05,06,01,27,17.50
2013,05,06,01,28,17.50
2013,05,06,01,29,17.50
2013,05,06,01,30,17.50
2013,05,06,01,31,17.50
2013,05,06,01,32,17.50
2013,05,06,01,33,17.50
2013,05,06,01,34,17.50
2013,05,06,01,35,17.40
2013,05,06,01,36,17.40
2013,05,06,01,37,17.40
2013,05,06,01,38,17.40
2013,05,06,01,39,17.40
2013,05,06,01,40,17.40
2013,05,06,01,41,17.40
2013,05,06,01,42,17.40
2013,05,06,01,43,17.40
2013,05,06,01,44,17.40
2013,05,06,01,45,17.50
2013,05,06,01,46,17.50
2013,05,06,01,47,17.60
2013,05,06,01,48,17.60
2013,05,06,01,49,17.60
2013,05,06,01,50,17.60
2013,05,06,01,51,17.60
2013,05,06,01,52,17.60
2013,05,06,01,53,17.60
2013,05,06,01,54,17.60
2013,05,06,01,55,17.60
2013,05,06,01,56,17.60
2013,05,06,01,57,17.60
2013,05,06,01,58,17.60
2013,05,06,01,59,17.60
2013,05,06,02,00,17.70
2013,05,06,02,01,17.70
2013,05,06,02,02,17.70
2013,05,06,02,03,17.70
2013,05,06,02,04,17.70
2013,05,06,02,05,17.70
2013,05,06,02,06,17.70
2013,05,06,02,07,17.70
2013,05,06,02,08,17.70
2013,05,06,02,09,17.70
2013,05,06,02,10,17.70
2013,05,06,02,11,17.80
2013,05,06,02,12,17.80
2013,05,06,02,13,17.80
2013,05,06,02,14,17.90
2013,05,06,02,15,17.90
2013,05,06,02,16,17.90
2013,05,06,02,17,17.90
2013,05,06,02,18,17.90
2013,05,06,02,19,17.80
2013,05,06,02,20,17.80
2013,05,06,02,21,17.80
2013,05,06,02,22,17.70
2013,05,06,02,23,17.60
2013,05,06,02,24,17.50
2013,05,06,02,25,17.40
2013,05,06,02,26,17.30
2013,05,06,02,27,17.30
2013,05,06,02,28,17.20
2013,05,06,02,29,17.20
2013,05,06,02,30,17.10
2013,05,06,02,31,17.00
2013,05,06,02,32,17.00
2013,05,06,02,33,16.90
2013,05,06,02,34,16.90
2013,05,06,02,35,16.90
2013,05,06,02,36,16.90
2013,05,06,02,37,16.90
2013,05,06,02,38,16.80
2013,05,06,02,39,16.80
2013,05,06,02,40,16.70
2013,05,06,02,41,16.70
2013,05,06,02,42,16.70
2013,05,06,02,43,16.70
2013,05,06,02,44,16.60
2013,05,06,02,45,16.60
2013,05,06,02,46,16.60
2013,05,06,02,47,16.60
2013,05,06,02,48,16.60
2013,05,06,02,49,16.60
2013,05,06,02,50,16.60
2013,05,06,02,51,16.60
2013,05,06,02,52,16.60
2013,05,06,02,53,16.50
2013,05,06,02,54,16.40
2013,05,06,02,55,16.40
2013,05,06,02,56,16.40
2013,05,06,02,57,16.40
2013,05,06,02,58,16.40
2013,05,06,02,59,16.40
2013,05,06,03,00,16.30
2013,05,06,03,01,16.30
2013,05,06,03,02,16.20
2013,05,06,03,03,16.20
2013,05,06,03,04,16.10
2013,05,06,03,05,16.10
2013,05,06,03,06,15.90
2013,05,06,03,07,15.80
2013,05,06,03,08,15.80
2013,05,06,03,09,15.80
2013,05,06,03,10,15.80
2013,05,06,03,11,15.80
2013,05,06,03,12,15.80
2013,05,06,03,13,15.80
2013,05,06,03,14,15.90
2013,05,06,03,15,15.90
2013,05,06,03,16,16.00
2013,05,06,03,17,16.10
2013,05,06,03,18,16.20
2013,05,06,03,19,16.20
2013,05,06,03,20,16.30
2013,05,06,03,21,16.40
2013,05,06,03,22,16.50
2013,05,06,03,23,16.60
2013,05,06,03,24,16.70
2013,05,06,03,25,16.70
2013,05,06,03,26,16.70
2013,05,06,03,27,16.70
2013,05,06,03,28,16.80
2013,05,06,03,29,16.70
2013,05,06,03,30,16.70
2013,05,06,03,31,16.70
2013,05,06,03,32,16.70
2013,05,06,03,33,16.70
2013,05,06,03,34,16.70
2013,05,06,03,35,16.70
2013,05,06,03,36,16.70
2013,05,06,03,37,16.70
2013,05,06,03,38,16.80
2013,05,06,03,39,16.80
2013,05,06,03,40,16.80
2013,05,06,03,41,16.80
2013,05,06,03,42,16.80
2013,05,06,03,43,16.90
2013,05,06,03,44,17.00
2013,05,06,03,45,17.10
2013,05,06,03,46,17.20
2013,05,06,03,47,17.30
2013,05,06,03,48,17.30
2013,05,06,03,49,17.30
2013,05,06,03,50,17.40
2013,05,06,03,51,17.50
2013,05,06,03,52,17.70
2013,05,06,03,53,17.90
2013,05,06,03,54,18.00
2013,05,06,03,55,18.10
2013,05,06,03,56,18.20
2013,05,06,03,57,18.20
2013,05,06,03,58,18.30
2013,05,06,03,59,18.30
2013,05,06,04,00,18.40
2013,05,06,04,01,18.40
2013,05,06,04,02,18.50
2013,05,06,04,03,18.50
2013,05,06,04,04,18.50
2013,05,06,04,05,18.50
2013,05,06,04,06,18.50
2013,05,06,04,07,18.50
2013,05,06,04,08,18.40
2013,05,06,04,09,18.40
2013,05,06,04,10,18.30
2013,05,06,04,11,18.20
2013,05,06,04,12,18.10
2013,05,06,04,13,18.00
2013,05,06,04,14,17.90
2013,05,06,04,15,17.70
2013,05,06,04,16,17.60
2013,05,06,04,17,17.50
2013,05,06,04,18,17.30
2013,05,06,04,19,17.20
2013,05,06,04,20,17.00
2013,05,06,04,21,16.90
2013,05,06,04,22,16.80
2013,05,06,04,23,16.70
2013,05,06,04,24,16.60
2013,05,06,04,25,16.50
2013,05,06,04,26,16.40
2013,05,06,04,27,16.30
2013,05,06,04,28,16.20
2013,05,06,04,29,16.10
2013,05,06,04,30,16.00
2013,05,06,04,31,15.80
2013,05,06,04,32,15.80
2013,05,06,04,33,15.70
2013,05,06,04,34,15.60
2013,05,06,04,35,15.50
2013,05,06,04,36,15.50
2013,05,06,04,37,15.40
2013,05,06,04,38,15.40
2013,05,06,04,39,15.30
2013,05,06,04,40,15.30
2013,05,06,04,41,15.30
2013,05,06,04,42,15.30
2013,05,06,04,43,15.30
2013,05,06,04,44,15.30
2013,05,06,04,45,15.20
2013,05,06,04,46,15.20
2013,05,06,04,47,15.10
2013,05,06,04,48,15.10
2013,05,06,04,49,15.10
2013,05,06,04,50,15.00
2013,05,06,04,51,15.00
2013,05,06,04,52,15.00
2013,05,06,04,53,14.90
2013,05,06,04,54,14.90
2013,05,06,04,55,14.90
2013,05,06,04,56,14.90
2013,05,06,04,57,14.80
2013,05,06,04,58,14.80
2013,05,06,04,59,14.80
2013,05,06,05,00,14.80
2013,05,06,05,01,14.80
2013,05,06,05,02,14.80
2013,05,06,05,03,14.70
2013,05,06,05,04,14.70
2013,05,06,05,05,14.60
2013,05,06,05,06,14.50
2013,05,06,05,07,14.50
2013,05,06,05,08,14.40
2013,05,06,05,09,14.30
2013,05,06,05,10,14.20
2013,05,06,05,11,14.20
2013,05,06,05,12,14.20
2013,05,06,05,13,14.20
2013,05,06,05,14,14.20
2013,05,06,05,15,14.30
2013,05,06,05,16,14.30
2013,05,06,05,17,14.30
2013,05,06,05,18,14.30
2013,05,06,05,19,14.40
2013,05,06,05,20,14.40
2013,05,06,05,21,14.40
2013,05,06,05,22,14.40
2013,05,06,05,23,14.50
2013,05,06,05,24,14.50
2013,05,06,05,25,14.50
2013,05,06,05,26,14.60
2013,05,06,05,27,14.60
2013,05,06,05,28,14.70
2013,05,06,05,29,14.80
2013,05,06,05,30,14.90
2013,05,06,05,31,15.00
2013,05,06,05,32,15.10
2013,05,06,05,33,15.10
2013,05,06,05,34,15.20
2013,05,06,05,35,15.30
2013,05,06,05,36,15.30
2013,05,06,05,37,15.30
2013,05,06,05,38,15.30
2013,05,06,05,39,15.30
2013,05,06,05,40,15.30
2013,05,06,05,41,15.20
2013,05,06,05,42,15.20
2013,05,06,05,43,15.10
2013,05,06,05,44,15.00
2013,05,06,05,45,14.90
2013,05,06,05,46,14.80
2013,05,06,05,47,14.70
2013,05,06,05,48,14.60
2013,05,06,05,49,14.50
2013,05,06,05,50,14.30
2013,05,06,05,51,14.20
2013,05,06,05,52,14.10
2013,05,06,05,53,14.00
2013,05,06,05,54,13.90
2013,05,06,05,55,13.90
2013,05,06,05,56,13.90
2013,05,06,05,57,13.90
2013,05,06,05,58,13.90
2013,05,06,05,59,14.00
2013,05,06,06,00,14.00
2013,05,06,06,01,14.10
2013,05,06,06,02,14.20
2013,05,06,06,03,14.20
2013,05,06,06,04,14.20
2013,05,06,06,05,14.20
2013,05,06,06,06,14.20
2013,05,06,06,07,14.20
2013,05,06,06,08,14.30
2013,05,06,06,09,14.30
2013,05,06,06,10,14.30
2013,05,06,06,11,14.40
2013,05,06,06,12,14.40
2013,05,06,06,13,14.40
2013,05,06,06,14,14.40
2013,05,06,06,15,14.50
2013,05,06,06,16,14.50
2013,05,06,06,17,14.50
2013,05,06,06,18,14.50
2013,05,06,06,19,14.50
2013,05,06,06,20,14.50
2013,05,06,06,21,14.50
2013,05,06,06,22,14.40
2013,05,06,06,23,14.40
2013,05,06,06,24,14.40
2013,05,06,06,25,14.40
2013,05,06,06,26,14.40
2013,05,06,06,27,14.40
2013,05,06,06,28,14.40
2013,05,06,06,29,14.40
2013,05,06,06,30,14.40
2013,05,06,06,31,14.40
2013,05,06,06,32,14.40
2013,05,06,06,33,14.50
2013,05,06,06,34,14.50
2013,05,06,06,35,14.60
2013,05,06,06,36,14.60
2013,05,06,06,37,14.70
2013,05,06,06,38,14.70
2013,05,06,06,39,14.80
2013,05,06,06,40,14.80
2013,05,06,06,41,14.80
2013,05,06,06,42,14.90
2013,05,06,06,43,14.90
2013,05,06,06,44,14.90
2013,05,06,06,45,15.00
2013,05,06,06,46,15.00
2013,05,06,06,47,15.00
2013,05,06,06,48,15.10
2013,05,06,06,49,15.10
2013,05,06,06,50,15.20
2013,05,06,06,51,15.20
2013,05,06,06,52,15.20
2013,05,06,06,53,15.30
2013,05,06,06,54,15.30
2013,05,06,06,55,15.30
2013,05,06,06,56,15.30
2013,05,06,06,57,15.30
2013,05,06,06,58,15.40
2013,05,06,06,59,15.40
2013,05,06,07,00,15.50
2013,05,06,07,01,15.50
2013,05,06,07,02,15.60
2013,05,06,07,03,15.70
2013,05,06,07,04,15.70
2013,05,06,07,05,15.80
2013,05,06,07,06,15.80
2013,05,06,07,07,15.90
2013,05,06,07,08,15.90
2013,05,06,07,09,16.00
2013,05,06,07,10,16.10
2013,05,06,07,11,16.10
2013,05,06,07,12,16.10
2013,05,06,07,13,16.10
2013,05,06,07,14,16.20
2013,05,06,07,15,16.20
2013,05,06,07,16,16.20
2013,05,06,07,17,16.30
2013,05,06,07,18,16.30
2013,05,06,07,19,16.40
2013,05,06,07,20,16.50
2013,05,06,07,21,16.60
2013,05,06,07,22,16.80
2013,05,06,07,23,16.90
2013,05,06,07,24,17.00
2013,05,06,07,25,17.10
2013,05,06,07,26,17.10
2013,05,06,07,27,17.10
2013,05,06,07,28,17.10
2013,05,06,07,29,17.00
2013,05,06,07,30,17.00
2013,05,06,07,31,17.00
2013,05,06,07,32,16.90
2013,05,06,07,33,16.80
2013,05,06,07,34,16.70
2013,05,06,07,35,16.60
2013,05,06,07,36,16.60
2013,05,06,07,37,16.60
2013,05,06,07,38,16.60
2013,05,06,07,39,16.50
2013,05,06,07,40,16.40
2013,05,06,07,41,16.40
2013,05,06,07,42,16.50
2013,05,06,07,43,16.60
2013,05,06,07,44,16.60
2013,05,06,07,45,16.70
2013,05,06,07,46,16.70
2013,05,06,07,47,16.70
2013,05,06,07,48,16.70
2013,05,06,07,49,16.70
2013,05,06,07,50,16.80
2013,05,06,07,51,16.80
2013,05,06,07,52,16.80
2013,05,06,07,53,16.90
2013,05,06,07,54,17.00
2013,05,06,07,55,17.00
2013,05,06,07,56,17.10
2013,05,06,07,57,17.10
2013,05,06,07,58,17.20
2013,05,06,07,59,17.30
2013,05,06,08,00,17.40
2013,05,06,08,01,17.40
2013,05,06,08,02,17.50
2013,05,06,08,03,17.60
2013,05,06,08,04,17.60
2013,05,06,08,05,17.60
2013,05,06,08,06,17.60
2013,05,06,08,07,17.60
2013,05,06,08,08,17.60
2013,05,06,08,09,17.60
2013,05,06,08,10,17.60
2013,05,06,08,11,17.60
2013,05,06,08,12,17.60
2013,05,06,08,13,17.70
2013,05,06,08,14,17.60
2013,05,06,08,15,17.70
2013,05,06,08,16,17.70
2013,05,06,08,17,17.70
2013,05,06,08,18,17.80
2013,05,06,08,19,17.90
2013,05,06,08,20,17.90
2013,05,06,08,21,17.90
2013,05,06,08,22,17.90
2013,05,06,08,23,17.80
2013,05,06,08,24,17.80
2013,05,06,08,25,17.80
2013,05,06,08,26,17.80
2013,05,06,08,27,17.80
2013,05,06,08,28,17.90
2013,05,06,08,29,17.90
2013,05,06,08,30,18.00
2013,05,06,08,31,18.10
2013,05,06,08,32,18.00
2013,05,06,08,33,17.90
2013,05,06,08,34,17.80
2013,05,06,08,35,17.80
2013,05,06,08,36,17.80
2013,05,06,08,37,17.70
2013,05,06,08,38,17.70
2013,05,06,08,39,17.60
2013,05,06,08,40,17.60
2013,05,06,08,41,17.70
2013,05,06,08,42,17.70
2013,05,06,08,43,17.70
2013,05,06,08,44,17.70
2013,05,06,08,45,17.70
2013,05,06,08,46,17.60
2013,05,06,08,47,17.60
2013,05,06,08,48,17.60
2013,05,06,08,49,17.70
2013,05,06,08,50,17.70
2013,05,06,08,51,17.80
2013,05,06,08,52,17.80
2013,05,06,08,53,17.90
2013,05,06,08,54,17.90
2013,05,06,08,55,17.90
2013,05,06,08,56,17.90
2013,05,06,08,57,17.90
2013,05,06,08,58,17.90
2013,05,06,08,59,17.90
2013,05,06,09,00,17.90
2013,05,06,09,01,17.90
2013,05,06,09,02,17.90
2013,05,06,09,03,17.90
2013,05,06,09,04,17.90
2013,05,06,09,05,18.00
2013,05,06,09,06,18.10
2013,05,06,09,07,18.10
2013,05,06,09,08,18.20
2013,05,06,09,09,18.20
2013,05,06,09,10,18.20
2013,05,06,09,11,18.20
2013,05,06,09,12,18.20
2013,05,06,09,13,18.20
2013,05,06,09,14,18.20
2013,05,06,09,15,18.20
2013,05,06,09,16,18.20
2013,05,06,09,17,18.20
2013,05,06,09,18,18.20
2013,05,06,09,19,18.30
2013,05,06,09,20,18.30
2013,05,06,09,21,18.40
2013,05,06,09,22,18.40
2013,05,06,09,23,18.40
2013,05,06,09,24,18.40
2013,05,06,09,25,18.50
2013,05,06,09,26,18.50
2013,05,06,09,27,18.50
2013,05,06,09,28,18.60
2013,05,06,09,29,18.60
2013,05,06,09,30,18.60
2013,05,06,09,31,18.60
2013,05,06,09,32,18.60
2013,05,06,09,33,18.70
2013,05,06,09,34,18.70
2013,05,06,09,35,18.70
2013,05,06,09,36,18.70
2013,05,06,09,37,18.70
2013,05,06,09,38,18.70
2013,05,06,09,39,18.70
2013,05,06,09,40,18.80
2013,05,06,09,41,18.80
2013,05,06,09,42,18.80
2013,05,06,09,43,18.90
2013,05,06,09,44,18.90
2013,05,06,09,45,18.90
2013,05,06,09,46,19.00
2013,05,06,09,47,19.10
2013,05,06,09,48,18.90
2013,05,06,09,49,18.90
2013,05,06,09,50,18.90
2013,05,06,09,51,18.90
2013,05,06,09,52,18.80
2013,05,06,09,53,18.80
2013,05,06,09,54,18.80
2013,05,06,09,55,18.80
2013,05,06,09,56,18.90
2013,05,06,09,57,18.90
2013,05,06,09,58,18.90
2013,05,06,09,59,18.90
2013,05,06,10,00,18.90
2013,05,06,10,01,18.90
2013,05,06,10,02,18.90
2013,05,06,10,03,18.90
2013,05,06,10,04,18.90
2013,05,06,10,05,18.90
2013,05,06,10,06,18.90
2013,05,06,10,07,18.90
2013,05,06,10,08,18.90
2013,05,06,10,09,18.90
2013,05,06,10,10,19.00
2013,05,06,10,11,19.10
2013,05,06,10,12,19.10
2013,05,06,10,13,19.20
2013,05,06,10,14,19.20
2013,05,06,10,15,19.30
2013,05,06,10,16,19.40
2013,05,06,10,17,19.50
2013,05,06,10,18,19.40
2013,05,06,10,19,19.40
2013,05,06,10,20,19.40
2013,05,06,10,21,19.40
2013,05,06,10,22,19.40
2013,05,06,10,23,19.30
2013,05,06,10,24,19.30
2013,05,06,10,25,19.20
2013,05,06,10,26,19.20
2013,05,06,10,27,19.30
2013,05,06,10,28,19.40
2013,05,06,10,29,19.40
2013,05,06,10,30,19.50
2013,05,06,10,31,19.50
2013,05,06,10,32,19.60
2013,05,06,10,33,19.60
2013,05,06,10,34,19.70
2013,05,06,10,35,19.80
2013,05,06,10,36,19.90
2013,05,06,10,37,19.80
2013,05,06,10,38,19.80
2013,05,06,10,39,19.70
2013,05,06,10,40,19.70
2013,05,06,10,41,19.80
2013,05,06,10,42,19.70
2013,05,06,10,43,19.60
2013,05,06,10,44,19.60
2013,05,06,10,45,19.60
2013,05,06,10,46,19.60
2013,05,06,10,47,19.60
2013,05,06,10,48,19.70
2013,05,06,10,49,19.70
2013,05,06,10,50,19.80
2013,05,06,10,51,19.70
2013,05,06,10,52,19.60
2013,05,06,10,53,19.50
2013,05,06,10,54,19.60
2013,05,06,10,55,19.60
2013,05,06,10,56,19.70
2013,05,06,10,57,19.80
2013,05,06,10,58,19.80
2013,05,06,10,59,19.90
2013,05,06,11,00,20.00
2013,05,06,11,01,20.10
2013,05,06,11,02,20.20
2013,05,06,11,03,20.20
2013,05,06,11,04,20.20
2013,05,06,11,05,20.20
2013,05,06,11,06,20.20
2013,05,06,11,07,20.20
2013,05,06,11,08,20.20
2013,05,06,11,09,20.20
2013,05,06,11,10,20.20
2013,05,06,11,11,20.20
2013,05,06,11,12,20.30
2013,05,06,11,13,20.40
2013,05,06,11,14,20.50
2013,05,06,11,15,20.70
2013,05,06,11,16,20.80
2013,05,06,11,17,20.80
2013,05,06,11,18,20.80
2013,05,06,11,19,20.70
2013,05,06,11,20,20.70
2013,05,06,11,21,20.60
2013,05,06,11,22,20.50
2013,05,06,11,23,20.40
2013,05,06,11,24,20.40
2013,05,06,11,25,20.40
2013,05,06,11,26,20.50
2013,05,06,11,27,20.60
2013,05,06,11,28,20.60
2013,05,06,11,29,20.70
2013,05,06,11,30,20.70
2013,05,06,11,31,20.70
2013,05,06,11,32,20.70
2013,05,06,11,33,20.60
2013,05,06,11,34,20.60
2013,05,06,11,35,20.50
2013,05,06,11,36,20.50
2013,05,06,11,37,20.60
2013,05,06,11,38,20.60
2013,05,06,11,39,20.50
2013,05,06,11,40,20.40
2013,05,06,11,41,20.40
2013,05,06,11,42,20.50
2013,05,06,11,43,20.50
2013,05,06,11,44,20.40
2013,05,06,11,45,20.30
2013,05,06,11,46,20.20
2013,05,06,11,47,20.20
2013,05,06,11,48,20.20
2013,05,06,11,49,20.20
2013,05,06,11,50,20.20
2013,05,06,11,51,20.30
2013,05,06,11,52,20.40
2013,05,06,11,53,20.40
2013,05,06,11,54,20.50
2013,05,06,11,55,20.50
2013,05,06,11,56,20.50
2013,05,06,11,57,20.50
2013,05,06,11,58,20.40
2013,05,06,11,59,20.40
2013,05,06,12,00,20.40
2013,05,06,12,01,20.50
2013,05,06,12,02,20.50
2013,05,06,12,03,20.60
2013,05,06,12,04,20.70
2013,05,06,12,05,20.80
2013,05,06,12,06,20.80
2013,05,06,12,07,20.80
2013,05,06,12,08,20.70
2013,05,06,12,09,20.70
2013,05,06,12,10,20.60
2013,05,06,12,11,20.60
2013,05,06,12,12,20.60
2013,05,06,12,13,20.50
2013,05,06,12,14,20.50
2013,05,06,12,15,20.50
2013,05,06,12,16,20.50
2013,05,06,12,17,20.60
2013,05,06,12,18,20.60
2013,05,06,12,19,20.70
2013,05,06,12,20,20.80
2013,05,06,12,21,21.00
2013,05,06,12,22,21.00
2013,05,06,12,23,21.10
2013,05,06,12,24,21.10
2013,05,06,12,25,21.30
2013,05,06,12,26,21.30
2013,05,06,12,27,21.20
2013,05,06,12,28,21.20
2013,05,06,12,29,21.30
2013,05,06,12,30,21.40
2013,05,06,12,31,21.50
2013,05,06,12,32,21.60
2013,05,06,12,33,21.60
2013,05,06,12,34,21.70
2013,05,06,12,35,21.90
2013,05,06,12,36,22.00
2013,05,06,12,37,22.20
2013,05,06,12,38,22.30
2013,05,06,12,39,22.40
2013,05,06,12,40,22.50
2013,05,06,12,41,22.50
2013,05,06,12,42,22.50
2013,05,06,12,43,22.40
2013,05,06,12,44,22.30
2013,05,06,12,45,22.30
2013,05,06,12,46,22.20
2013,05,06,12,47,22.10
2013,05,06,12,48,22.00
2013,05,06,12,49,22.00
2013,05,06,12,50,22.10
2013,05,06,12,51,22.10
2013,05,06,12,52,22.20
2013,05,06,12,53,22.30
2013,05,06,12,54,22.20
2013,05,06,12,55,22.20
2013,05,06,12,56,22.20
2013,05,06,12,57,22.30
2013,05,06,12,58,22.40
2013,05,06,12,59,22.40
2013,05,06,13,00,22.30
2013,05,06,13,01,22.30
2013,05,06,13,02,22.40
2013,05,06,13,03,22.40
2013,05,06,13,04,22.50
2013,05,06,13,05,22.60
2013,05,06,13,06,22.70
2013,05,06,13,07,22.80
2013,05,06,13,08,22.80
2013,05,06,13,09,22.80
2013,05,06,13,10,22.70
2013,05,06,13,11,22.60
2013,05,06,13,12,22.50
2013,05,06,13,13,22.30
2013,05,06,13,14,22.20
2013,05,06,13,15,22.10
2013,05,06,13,16,22.00
2013,05,06,13,17,22.00
2013,05,06,13,18,21.90
2013,05,06,13,19,21.90
2013,05,06,13,20,21.90
2013,05,06,13,21,22.00
2013,05,06,13,22,22.00
2013,05,06,13,23,22.10
2013,05,06,13,24,22.10
2013,05,06,13,25,22.10
2013,05,06,13,26,22.10
2013,05,06,13,27,22.10
2013,05,06,13,28,22.20
2013,05,06,13,29,22.20
2013,05,06,13,30,22.20
2013,05,06,13,31,22.20
2013,05,06,13,32,22.30
2013,05,06,13,33,22.30
2013,05,06,13,34,22.40
2013,05,06,13,35,22.40
2013,05,06,13,36,22.40
2013,05,06,13,37,22.50
2013,05,06,13,38,22.50
2013,05,06,13,39,22.50
2013,05,06,13,40,22.40
2013,05,06,13,41,22.30
2013,05,06,13,42,22.30
2013,05,06,13,43,22.30
2013,05,06,13,44,22.30
2013,05,06,13,45,22.40
2013,05,06,13,46,22.50
2013,05,06,13,47,22.50
2013,05,06,13,48,22.50
2013,05,06,13,49,22.50
2013,05,06,13,50,22.50
2013,05,06,13,51,22.50
2013,05,06,13,52,22.50
2013,05,06,13,53,22.50
2013,05,06,13,54,22.50
2013,05,06,13,55,22.50
2013,05,06,13,56,22.60
2013,05,06,13,57,22.60
2013,05,06,13,58,22.70
2013,05,06,13,59,22.70
2013,05,06,14,00,22.80
2013,05,06,14,01,22.70
2013,05,06,14,02,22.70
2013,05,06,14,03,22.80
2013,05,06,14,04,22.90
2013,05,06,14,05,22.90
2013,05,06,14,06,22.90
2013,05,06,14,07,22.90
2013,05,06,14,08,23.10
2013,05,06,14,09,23.10
2013,05,06,14,10,23.10
2013,05,06,14,11,23.20
2013,05,06,14,12,23.30
2013,05,06,14,13,23.30
2013,05,06,14,14,23.30
2013,05,06,14,15,23.50
2013,05,06,14,16,23.60
2013,05,06,14,17,23.60
2013,05,06,14,18,23.70
2013,05,06,14,19,23.70
2013,05,06,14,20,23.70
2013,05,06,14,21,23.70
2013,05,06,14,22,23.70
2013,05,06,14,23,23.70
2013,05,06,14,24,23.70
2013,05,06,14,25,23.70
2013,05,06,14,26,23.70
2013,05,06,14,27,23.70
2013,05,06,14,28,23.90
2013,05,06,14,29,24.10
2013,05,06,14,30,24.10
2013,05,06,14,31,24.20
2013,05,06,14,32,24.20
2013,05,06,14,33,24.30
2013,05,06,14,34,24.30
2013,05,06,14,35,24.30
2013,05,06,14,36,24.20
2013,05,06,14,37,24.20
2013,05,06,14,38,24.10
2013,05,06,14,39,24.10
2013,05,06,14,40,24.10
2013,05,06,14,41,24.10
2013,05,06,14,42,24.10
2013,05,06,14,43,24.10
2013,05,06,14,44,24.10
2013,05,06,14,45,24.10
2013,05,06,14,46,24.20
2013,05,06,14,47,24.30
2013,05,06,14,48,24.40
2013,05,06,14,49,24.40
2013,05,06,14,50,24.30
2013,05,06,14,51,24.20
2013,05,06,14,52,24.20
2013,05,06,14,53,24.10
2013,05,06,14,54,24.00
2013,05,06,14,55,23.90
2013,05,06,14,56,23.80
2013,05,06,14,57,23.70
2013,05,06,14,58,23.70
2013,05,06,14,59,23.80
2013,05,06,15,00,23.90
2013,05,06,15,01,24.10
2013,05,06,15,02,24.00
2013,05,06,15,03,24.00
2013,05,06,15,04,24.10
2013,05,06,15,05,24.10
2013,05,06,15,06,24.10
2013,05,06,15,07,24.20
2013,05,06,15,08,24.20
2013,05,06,15,09,24.10
2013,05,06,15,10,24.20
2013,05,06,15,11,24.20
2013,05,06,15,12,24.10
2013,05,06,15,13,24.10
2013,05,06,15,14,24.10
2013,05,06,15,15,24.00
2013,05,06,15,16,23.90
2013,05,06,15,17,23.90
2013,05,06,15,18,24.00
2013,05,06,15,19,24.10
2013,05,06,15,20,24.20
2013,05,06,15,21,24.30
2013,05,06,15,22,24.40
2013,05,06,15,23,24.50
2013,05,06,15,24,24.50
2013,05,06,15,25,24.60
2013,05,06,15,26,24.70
2013,05,06,15,27,24.70
2013,05,06,15,28,24.80
2013,05,06,15,29,24.80
2013,05,06,15,30,24.80
2013,05,06,15,31,24.80
2013,05,06,15,32,24.80
2013,05,06,15,33,24.70
2013,05,06,15,34,24.70
2013,05,06,15,35,24.60
2013,05,06,15,36,24.60
2013,05,06,15,37,24.50
2013,05,06,15,38,24.30
2013,05,06,15,39,24.10
2013,05,06,15,40,24.10
2013,05,06,15,41,24.10
2013,05,06,15,42,24.10
2013,05,06,15,43,24.20
2013,05,06,15,44,24.30
2013,05,06,15,45,24.40
2013,05,06,15,46,24.40
2013,05,06,15,47,24.50
2013,05,06,15,48,24.60
2013,05,06,15,49,24.70
2013,05,06,15,50,24.80
2013,05,06,15,51,24.90
2013,05,06,15,52,24.90
2013,05,06,15,53,24.90
2013,05,06,15,54,24.90
2013,05,06,15,55,24.80
2013,05,06,15,56,24.70
2013,05,06,15,57,24.70
2013,05,06,15,58,24.60
2013,05,06,15,59,24.70
2013,05,06,16,00,24.80
2013,05,06,16,01,24.80
2013,05,06,16,02,24.80
2013,05,06,16,03,24.70
2013,05,06,16,04,24.70
2013,05,06,16,05,24.80
2013,05,06,16,06,24.90
2013,05,06,16,07,24.90
2013,05,06,16,08,25.00
2013,05,06,16,09,25.10
2013,05,06,16,10,25.10
2013,05,06,16,11,25.10
2013,05,06,16,12,25.20
2013,05,06,16,13,25.10
2013,05,06,16,14,25.00
2013,05,06,16,15,25.00
2013,05,06,16,16,24.90
2013,05,06,16,17,24.90
2013,05,06,16,18,24.90
2013,05,06,16,19,24.90
2013,05,06,16,20,25.00
2013,05,06,16,21,25.00
2013,05,06,16,22,25.10
2013,05,06,16,23,25.20
2013,05,06,16,24,25.30
2013,05,06,16,25,25.40
2013,05,06,16,26,25.60
2013,05,06,16,27,25.70
2013,05,06,16,28,25.90
2013,05,06,16,29,26.00
2013,05,06,16,30,26.10
2013,05,06,16,31,26.10
2013,05,06,16,32,26.00
2013,05,06,16,33,26.00
2013,05,06,16,34,26.00
2013,05,06,16,35,25.90
2013,05,06,16,36,26.00
2013,05,06,16,37,26.00
2013,05,06,16,38,25.90
2013,05,06,16,39,25.80
2013,05,06,16,40,25.70
2013,05,06,16,41,25.70
2013,05,06,16,42,25.70
2013,05,06,16,43,25.70
2013,05,06,16,44,25.60
2013,05,06,16,45,25.50
2013,05,06,16,46,25.50
2013,05,06,16,47,25.50
2013,05,06,16,48,25.50
2013,05,06,16,49,25.60
2013,05,06,16,50,25.50
2013,05,06,16,51,25.40
2013,05,06,16,52,25.40
2013,05,06,16,53,25.40
2013,05,06,16,54,25.30
2013,05,06,16,55,25.30
2013,05,06,16,56,25.30
2013,05,06,16,57,25.30
2013,05,06,16,58,25.30
2013,05,06,16,59,25.30
2013,05,06,17,00,25.30
2013,05,06,17,01,25.30
2013,05,06,17,02,25.30
2013,05,06,17,03,25.40
2013,05,06,17,04,25.40
2013,05,06,17,05,25.50
2013,05,06,17,06,25.50
2013,05,06,17,07,25.60
2013,05,06,17,08,25.60
2013,05,06,17,09,25.60
2013,05,06,17,10,25.70
2013,05,06,17,11,25.80
2013,05,06,17,12,25.80
2013,05,06,17,13,25.90
2013,05,06,17,14,25.90
2013,05,06,17,15,25.80
2013,05,06,17,16,25.80
2013,05,06,17,17,25.60
2013,05,06,17,18,25.50
2013,05,06,17,19,25.40